Time,TemperatureF,DewpointF,PressureIn,WindDirection,WindDirectionDegrees,WindSpeedMPH,WindSpeedGustMPH,Humidity,HourlyPrecipIn,Conditions,Clouds,dailyrainin,SolarRadiationWatts/m^2,SoftwareType,DateUTC
2013-10-10 00:02:00,49.8,46.7,30.08,SSE,153,0.0,0.0,89,0.00,CLR,,0.00,0.0,WeatherDisplay:10.37,2013-10-10 05:02:00,
2013-10-10 00:07:00,49.6,46.8,30.08,SSE,153,0.0,0.0,90,0.00,CLR,,0.00,0.0,WeatherDisplay:10.37,2013-10-10 05:07:00,
2013-10-10 00:12:00,49.4,46.6,30.09,SSE,153,0.0,0.0,90,0.00,CLR,,0.00,0.0,WeatherDisplay:10.37,2013-10-10 05:12:00,
2013-10-10 00:17:00,49.2,46.4,30.09,SSE,153,0.0,0.0,90,0.00,CLR,,0.00,0.0,WeatherDisplay:10.37,2013-10-10 05:17:00,
2013-10-10 00:22:00,52.0,48.3,30.07,SSE,153,0.0,0.0,87,0.00,CLR,,0.00,0.0,WeatherDisplay:10.37,2013-10-10 05:22:00,
2013-10-10 00:27:00,48.9,46.1,30.09,SSE,153,0.0,0.0,90,0.00,CLR,,0.00,0.0,WeatherDisplay:10.37,2013-10-10 05:27:00,
2013-10-10 00:32:00,48.5,45.4,30.09,SSE,153,0.0,0.0,89,0.00,CLR,,0.00,0.0,WeatherDisplay:10.37,2013-10-10 05:32:00,
2013-10-10 00:37:00,52.0,48.3,30.07,SSE,153,0.0,0.0,87,0.00,CLR,,0.00,0.0,WeatherDisplay:10.37,2013-10-10 05:37:00,
2013-10-10 00:42:00,52.0,48.3,30.07,SSE,153,0.0,0.0,87,0.00,CLR,,0.00,0.0,WeatherDisplay:10.37,2013-10-10 05:42:00,
2013-10-10 00:47:00,47.4,44.3,30.09,SSE,153,0.0,0.0,89,0.00,CLR,,0.00,0.0,WeatherDisplay:10.37,2013-10-10 05:47:00,
2013-10-10 00:52:00,52.0,48.3,30.07,SSE,153,0.0,0.0,87,0.00,CLR,,0.00,0.0,WeatherDisplay:10.37,2013-10-10 05:52:00,
2013-10-10 00:57:00,52.0,48.3,30.07,SSE,153,0.0,0.0,87,0.00,CLR,,0.00,0.0,WeatherDisplay:10.37,2013-10-10 05:57:00,
2013-10-10 01:02:00,46.5,44.0,30.10,SSE,153,0.0,0.0,91,0.00,CLR,,0.00,0.0,WeatherDisplay:10.37,2013-10-10 06:02:00,
2013-10-10 01:07:00,46.4,43.9,30.10,SSE,153,0.0,0.0,91,0.00,CLR,,0.00,0.0,WeatherDisplay:10.37,2013-10-10 06:07:00,
2013-10-10 01:12:00,46.2,43.7,30.10,SSE,153,0.0,0.0,91,0.00,CLR,,0.00,0.0,WeatherDisplay:10.37,2013-10-10 06:12:00,
2013-10-10 01:17:00,46.0,43.5,30.10,SSE,153,0.0,0.0,91,0.00,CLR,,0.00,0.0,WeatherDisplay:10.37,2013-10-10 06:17:00,
2013-10-10 01:22:00,46.5,43.7,30.10,SSE,153,0.0,0.0,90,0.00,CLR,,0.00,0.0,WeatherDisplay:10.37,2013-10-10 06:22:00,
2013-10-10 01:27:00,46.5,43.7,30.10,SSE,153,0.0,0.0,90,0.00,CLR,,0.00,0.0,WeatherDisplay:10.37,2013-10-10 06:27:00,
2013-10-10 01:32:00,46.5,43.7,30.10,SSE,153,0.0,0.0,90,0.00,CLR,,0.00,0.0,WeatherDisplay:10.37,2013-10-10 06:32:00,
2013-10-10 01:37:00,45.1,42.6,30.10,SSE,153,0.0,0.0,91,0.00,CLR,,0.00,0.0,WeatherDisplay:10.37,2013-10-10 06:37:00,
2013-10-10 01:42:00,44.9,42.4,30.10,SSE,153,0.0,0.0,91,0.00,CLR,,0.00,0.0,WeatherDisplay:10.37,2013-10-10 06:42:00,
2013-10-10 01:47:00,44.7,42.2,30.10,SSE,153,0.0,0.0,91,0.00,CLR,,0.00,0.0,WeatherDisplay:10.37,2013-10-10 06:47:00,
2013-10-10 01:52:00,44.5,42.3,30.10,SSE,153,0.0,0.0,92,0.00,CLR,,0.00,0.0,WeatherDisplay:10.37,2013-10-10 06:52:00,
2013-10-10 01:57:00,44.4,42.2,30.10,SSE,153,0.0,0.0,92,0.00,CLR,,0.00,0.0,WeatherDisplay:10.37,2013-10-10 06:57:00,
2013-10-10 02:02:00,45.1,42.6,30.10,SSE,153,0.0,0.0,91,0.00,CLR,,0.00,0.0,WeatherDisplay:10.37,2013-10-10 07:02:00,
2013-10-10 02:08:00,44.0,41.8,30.10,SSE,153,0.0,0.0,92,0.00,CLR,,0.00,0.0,WeatherDisplay:10.37,2013-10-10 07:08:00,
2013-10-10 02:13:00,43.8,41.6,30.10,SSE,153,0.0,0.0,92,0.00,CLR,,0.00,0.0,WeatherDisplay:10.37,2013-10-10 07:13:00,
2013-10-10 02:18:00,43.6,41.4,30.10,SSE,153,0.0,0.0,92,0.00,CLR,,0.00,0.0,WeatherDisplay:10.37,2013-10-10 07:18:00,
2013-10-10 02:23:00,43.5,41.3,30.10,SSE,153,0.0,0.0,92,0.00,CLR,,0.00,0.0,WeatherDisplay:10.37,2013-10-10 07:23:00,
2013-10-10 02:28:00,43.3,41.1,30.10,SSE,153,0.0,0.0,92,0.00,CLR,,0.00,0.0,WeatherDisplay:10.37,2013-10-10 07:28:00,
2013-10-10 02:33:00,43.2,41.0,30.10,SSE,153,0.0,0.0,92,0.00,CLR,,0.00,0.0,WeatherDisplay:10.37,2013-10-10 07:33:00,
2013-10-10 02:38:00,43.3,41.1,30.10,SSE,153,0.0,0.0,92,0.00,CLR,,0.00,0.0,WeatherDisplay:10.37,2013-10-10 07:38:00,
2013-10-10 02:43:00,43.3,41.1,30.10,SSE,153,0.0,0.0,92,0.00,CLR,,0.00,0.0,WeatherDisplay:10.37,2013-10-10 07:43:00,
2013-10-10 02:48:00,43.3,41.1,30.10,SSE,153,0.0,0.0,92,0.00,CLR,,0.00,0.0,WeatherDisplay:10.37,2013-10-10 07:48:00,
2013-10-10 02:53:00,42.5,40.6,30.10,SSE,153,0.0,0.0,93,0.00,CLR,,0.00,0.0,WeatherDisplay:10.37,2013-10-10 07:53:00,
2013-10-10 02:58:00,43.3,41.1,30.10,SSE,153,0.0,0.0,92,0.00,CLR,,0.00,0.0,WeatherDisplay:10.37,2013-10-10 07:58:00,
2013-10-10 03:03:00,43.3,41.1,30.10,SSE,153,0.0,0.0,92,0.00,CLR,,0.00,0.0,WeatherDisplay:10.37,2013-10-10 08:03:00,
2013-10-10 03:08:00,43.3,41.1,30.10,SSE,153,0.0,0.0,92,0.00,CLR,,0.00,0.0,WeatherDisplay:10.37,2013-10-10 08:08:00,
2013-10-10 03:13:00,43.3,41.1,30.10,SSE,153,0.0,0.0,92,0.00,CLR,,0.00,0.0,WeatherDisplay:10.37,2013-10-10 08:13:00,
2013-10-10 03:18:00,41.8,39.9,30.10,SSE,153,0.0,0.0,93,0.00,CLR,,0.00,0.0,WeatherDisplay:10.37,2013-10-10 08:18:00,
2013-10-10 03:23:00,41.6,39.7,30.10,SSE,153,0.0,0.0,93,0.00,CLR,,0.00,0.0,WeatherDisplay:10.37,2013-10-10 08:23:00,
2013-10-10 03:28:00,41.5,39.6,30.10,SSE,153,0.0,0.0,93,0.00,CLR,,0.00,0.0,WeatherDisplay:10.37,2013-10-10 08:28:00,
2013-10-10 03:33:00,41.8,39.9,30.10,SSE,153,0.0,0.0,93,0.00,CLR,,0.00,0.0,WeatherDisplay:10.37,2013-10-10 08:33:00,
2013-10-10 03:38:00,41.2,39.3,30.10,SSE,153,0.0,0.0,93,0.00,CLR,,0.00,0.0,WeatherDisplay:10.37,2013-10-10 08:38:00,
2013-10-10 03:43:00,41.8,39.9,30.10,SSE,153,0.0,0.0,93,0.00,CLR,,0.00,0.0,WeatherDisplay:10.37,2013-10-10 08:43:00,
2013-10-10 03:48:00,40.9,39.0,30.10,SSE,153,0.0,0.0,93,0.00,CLR,,0.00,0.0,WeatherDisplay:10.37,2013-10-10 08:48:00,
2013-10-10 03:53:00,41.8,39.9,30.10,SSE,153,0.0,0.0,93,0.00,CLR,,0.00,0.0,WeatherDisplay:10.37,2013-10-10 08:53:00,
2013-10-10 03:58:00,41.8,39.9,30.10,SSE,153,0.0,0.0,93,0.00,CLR,,0.00,0.0,WeatherDisplay:10.37,2013-10-10 08:58:00,
2013-10-10 04:03:00,41.8,39.9,30.10,SSE,153,0.0,0.0,93,0.00,CLR,,0.00,0.0,WeatherDisplay:10.37,2013-10-10 09:03:00,
2013-10-10 04:08:00,41.8,39.9,30.10,SSE,153,0.0,0.0,93,0.00,CLR,,0.00,0.0,WeatherDisplay:10.37,2013-10-10 09:08:00,
2013-10-10 04:13:00,40.2,38.6,30.11,SSE,153,0.0,0.0,94,0.00,CLR,,0.00,0.0,WeatherDisplay:10.37,2013-10-10 09:13:00,
2013-10-10 04:18:00,41.8,39.9,30.10,SSE,153,0.0,0.0,93,0.00,CLR,,0.00,0.0,WeatherDisplay:10.37,2013-10-10 09:18:00,
2013-10-10 04:23:00,41.8,39.9,30.10,SSE,153,0.0,0.0,93,0.00,CLR,,0.00,0.0,WeatherDisplay:10.37,2013-10-10 09:23:00,
2013-10-10 04:28:00,39.8,38.2,30.11,SSE,153,0.0,0.0,94,0.00,CLR,,0.00,0.0,WeatherDisplay:10.37,2013-10-10 09:28:00,
2013-10-10 04:33:00,39.6,38.0,30.11,SSE,153,0.0,0.0,94,0.00,CLR,,0.00,0.0,WeatherDisplay:10.37,2013-10-10 09:33:00,
2013-10-10 04:38:00,39.5,37.9,30.11,SSE,153,0.0,0.0,94,0.00,CLR,,0.00,0.0,WeatherDisplay:10.37,2013-10-10 09:38:00,
2013-10-10 04:43:00,39.5,37.9,30.11,SSE,153,0.0,0.0,94,0.00,CLR,,0.00,0.0,WeatherDisplay:10.37,2013-10-10 09:43:00,
2013-10-10 04:48:00,41.8,39.9,30.10,SSE,153,0.0,0.0,93,0.00,CLR,,0.00,0.0,WeatherDisplay:10.37,2013-10-10 09:48:00,
2013-10-10 04:53:00,39.3,37.7,30.11,SSE,153,0.0,0.0,94,0.00,CLR,,0.00,0.0,WeatherDisplay:10.37,2013-10-10 09:53:00,
2013-10-10 04:58:00,39.2,37.6,30.11,SSE,153,0.0,0.0,94,0.00,CLR,,0.00,0.0,WeatherDisplay:10.37,2013-10-10 09:58:00,
2013-10-10 05:03:00,41.8,39.9,30.10,SSE,153,0.0,0.0,93,0.00,CLR,,0.00,0.0,WeatherDisplay:10.37,2013-10-10 10:03:00,
2013-10-10 05:08:00,41.8,39.9,30.10,SSE,153,0.0,0.0,93,0.00,CLR,,0.00,0.0,WeatherDisplay:10.37,2013-10-10 10:08:00,
2013-10-10 05:13:00,39.0,37.4,30.11,SSE,153,0.0,0.0,94,0.00,CLR,,0.00,0.0,WeatherDisplay:10.37,2013-10-10 10:13:00,
2013-10-10 05:18:00,39.0,37.7,30.11,SSE,153,0.0,0.0,95,0.00,CLR,,0.00,0.0,WeatherDisplay:10.37,2013-10-10 10:18:00,
2013-10-10 05:23:00,39.0,37.4,30.11,SSE,153,0.0,0.0,94,0.00,CLR,,0.00,0.0,WeatherDisplay:10.37,2013-10-10 10:23:00,
2013-10-10 05:28:00,38.8,37.2,30.11,SSE,153,0.0,0.0,94,0.00,CLR,,0.00,0.0,WeatherDisplay:10.37,2013-10-10 10:28:00,
2013-10-10 05:33:00,39.0,37.4,30.11,SSE,153,0.0,0.0,94,0.00,CLR,,0.00,0.0,WeatherDisplay:10.37,2013-10-10 10:33:00,
2013-10-10 05:38:00,38.6,37.0,30.11,SSE,153,0.0,0.0,94,0.00,CLR,,0.00,0.0,WeatherDisplay:10.37,2013-10-10 10:38:00,
2013-10-10 05:43:00,39.0,37.4,30.11,SSE,153,0.0,0.0,94,0.00,CLR,,0.00,0.0,WeatherDisplay:10.37,2013-10-10 10:43:00,
2013-10-10 05:48:00,39.0,37.4,30.11,SSE,153,0.0,0.0,94,0.00,CLR,,0.00,0.0,WeatherDisplay:10.37,2013-10-10 10:48:00,
2013-10-10 05:53:00,38.2,36.6,30.10,SSE,153,0.0,0.0,94,0.00,CLR,,0.00,0.0,WeatherDisplay:10.37,2013-10-10 10:53:00,
2013-10-10 05:58:00,38.2,36.6,30.10,SSE,153,0.0,0.0,94,0.00,CLR,,0.00,0.0,WeatherDisplay:10.37,2013-10-10 10:58:00,
2013-10-10 06:03:00,38.1,36.5,30.10,SSE,153,0.0,0.0,94,0.00,CLR,,0.00,0.0,WeatherDisplay:10.37,2013-10-10 11:03:00,
2013-10-10 06:08:00,37.9,36.3,30.10,SSE,153,0.0,0.0,94,0.00,CLR,,0.00,0.0,WeatherDisplay:10.37,2013-10-10 11:08:00,
2013-10-10 06:13:00,37.9,36.3,30.10,SSE,153,0.0,0.0,94,0.00,CLR,,0.00,0.0,WeatherDisplay:10.37,2013-10-10 11:13:00,
2013-10-10 06:18:00,37.9,36.3,30.10,SSE,153,0.0,0.0,94,0.00,CLR,,0.00,0.0,WeatherDisplay:10.37,2013-10-10 11:18:00,
2013-10-10 06:23:00,37.7,36.4,30.10,SSE,153,0.0,0.0,95,0.00,CLR,,0.00,0.0,WeatherDisplay:10.37,2013-10-10 11:23:00,
2013-10-10 06:28:00,37.7,36.4,30.10,SSE,153,0.0,0.0,95,0.00,CLR,,0.00,0.0,WeatherDisplay:10.37,2013-10-10 11:28:00,
2013-10-10 06:33:00,37.7,36.4,30.10,SSE,153,0.0,0.0,95,0.00,CLR,,0.00,0.0,WeatherDisplay:10.37,2013-10-10 11:33:00,
2013-10-10 06:38:00,37.5,36.2,30.10,SSE,153,0.0,0.0,95,0.00,CLR,,0.00,0.0,WeatherDisplay:10.37,2013-10-10 11:38:00,
2013-10-10 06:43:00,37.7,36.4,30.10,SSE,153,0.0,0.0,95,0.00,CLR,,0.00,0.0,WeatherDisplay:10.37,2013-10-10 11:43:00,
2013-10-10 06:48:00,37.5,36.2,30.10,SSE,153,0.0,0.0,95,0.00,CLR,,0.00,0.0,WeatherDisplay:10.37,2013-10-10 11:48:00,
2013-10-10 06:53:00,37.4,36.1,30.10,SSE,153,0.0,0.0,95,0.00,CLR,,0.00,0.0,WeatherDisplay:10.37,2013-10-10 11:53:00,
2013-10-10 06:58:00,37.4,36.1,30.10,SSE,153,0.0,0.0,95,0.00,CLR,,0.00,0.0,WeatherDisplay:10.37,2013-10-10 11:58:00,
2013-10-10 07:03:00,37.3,36.0,30.10,SSE,153,0.0,0.0,95,0.00,CLR,,0.00,0.0,WeatherDisplay:10.37,2013-10-10 12:03:00,
2013-10-10 07:08:00,37.2,35.9,30.10,SSE,153,0.0,0.0,95,0.00,CLR,,0.00,0.0,WeatherDisplay:10.37,2013-10-10 12:08:00,
2013-10-10 07:13:00,37.1,35.8,30.10,SSE,153,0.0,0.0,95,0.00,CLR,,0.00,0.0,WeatherDisplay:10.37,2013-10-10 12:13:00,
2013-10-10 07:18:00,37.1,35.8,30.10,SSE,153,0.0,0.0,95,0.00,CLR,,0.00,0.0,WeatherDisplay:10.37,2013-10-10 12:18:00,
2013-10-10 07:23:00,37.4,36.1,30.10,SSE,153,0.0,0.0,95,0.00,CLR,,0.00,0.0,WeatherDisplay:10.37,2013-10-10 12:23:00,
2013-10-10 07:29:00,37.1,35.8,30.10,SSE,153,0.0,0.0,95,0.00,CLR,,0.00,7.0,WeatherDisplay:10.37,2013-10-10 12:29:00,
2013-10-10 07:34:00,37.4,36.1,30.10,SSE,153,0.0,0.0,95,0.00,CLR,,0.00,0.0,WeatherDisplay:10.37,2013-10-10 12:34:00,
2013-10-10 07:39:00,37.4,36.1,30.10,SSE,153,0.0,0.0,95,0.00,CLR,,0.00,0.0,WeatherDisplay:10.37,2013-10-10 12:39:00,
2013-10-10 07:44:00,37.4,36.1,30.10,SSE,153,0.0,0.0,95,0.00,CLR,,0.00,0.0,WeatherDisplay:10.37,2013-10-10 12:44:00,
2013-10-10 07:49:00,37.2,35.9,30.11,SSE,153,0.0,0.0,95,0.00,CLR,,0.00,19.0,WeatherDisplay:10.37,2013-10-10 12:49:00,
2013-10-10 07:54:00,37.4,36.1,30.11,SSE,153,0.0,0.0,95,0.00,CLR,,0.00,25.0,WeatherDisplay:10.37,2013-10-10 12:54:00,
2013-10-10 07:59:00,37.6,36.6,30.10,SSE,153,0.0,0.0,96,0.00,CLR,,0.00,28.0,WeatherDisplay:10.37,2013-10-10 12:59:00,
2013-10-10 08:04:00,37.4,36.1,30.10,SSE,153,0.0,0.0,95,0.00,CLR,,0.00,0.0,WeatherDisplay:10.37,2013-10-10 13:04:00,
2013-10-10 08:09:00,38.0,37.0,30.11,SSE,153,0.0,0.0,96,0.00,CLR,,0.00,32.0,WeatherDisplay:10.37,2013-10-10 13:09:00,
2013-10-10 08:14:00,38.0,37.0,30.11,SSE,153,0.0,0.0,96,0.00,CLR,,0.00,32.0,WeatherDisplay:10.37,2013-10-10 13:14:00,
2013-10-10 08:19:00,38.9,37.9,30.10,SSE,153,0.0,0.0,96,0.00,CLR,,0.00,33.0,WeatherDisplay:10.37,2013-10-10 13:19:00,
2013-10-10 08:24:00,39.3,38.3,30.11,SSE,153,0.0,0.0,96,0.00,CLR,,0.00,33.0,WeatherDisplay:10.37,2013-10-10 13:24:00,
2013-10-10 08:29:00,39.6,38.6,30.10,SSE,153,0.0,0.0,96,0.00,CLR,,0.00,33.0,WeatherDisplay:10.37,2013-10-10 13:29:00,
2013-10-10 08:34:00,39.9,38.9,30.10,SSE,153,0.0,0.0,96,0.00,CLR,,0.00,33.0,WeatherDisplay:10.37,2013-10-10 13:34:00,
2013-10-10 08:39:00,40.2,39.2,30.10,SSE,153,0.0,0.0,96,0.00,CLR,,0.00,35.0,WeatherDisplay:10.37,2013-10-10 13:39:00,
2013-10-10 08:44:00,40.4,39.6,30.10,SSE,153,0.0,0.0,97,0.00,CLR,,0.00,32.0,WeatherDisplay:10.37,2013-10-10 13:44:00,
2013-10-10 08:49:00,40.4,39.4,30.10,SSE,153,0.0,0.0,96,0.00,CLR,,0.00,32.0,WeatherDisplay:10.37,2013-10-10 13:49:00,
2013-10-10 08:54:00,41.2,40.4,30.10,SSE,153,0.0,0.0,97,0.00,CLR,,0.00,39.0,WeatherDisplay:10.37,2013-10-10 13:54:00,
2013-10-10 08:59:00,41.2,40.4,30.10,SSE,153,0.0,0.0,97,0.00,CLR,,0.00,39.0,WeatherDisplay:10.37,2013-10-10 13:59:00,
2013-10-10 09:04:00,41.2,40.4,30.10,SSE,153,0.0,0.0,97,0.00,CLR,,0.00,39.0,WeatherDisplay:10.37,2013-10-10 14:04:00,
2013-10-10 09:09:00,41.2,40.4,30.10,SSE,153,0.0,0.0,97,0.00,CLR,,0.00,39.0,WeatherDisplay:10.37,2013-10-10 14:09:00,
2013-10-10 09:14:00,41.2,40.4,30.10,SSE,153,0.0,0.0,97,0.00,CLR,,0.00,39.0,WeatherDisplay:10.37,2013-10-10 14:14:00,
2013-10-10 09:19:00,41.2,40.4,30.10,SSE,153,0.0,0.0,97,0.00,CLR,,0.00,39.0,WeatherDisplay:10.37,2013-10-10 14:19:00,
2013-10-10 09:24:00,43.4,42.6,30.10,SSE,153,0.0,0.0,97,0.00,CLR,,0.00,93.0,WeatherDisplay:10.37,2013-10-10 14:24:00,
2013-10-10 09:29:00,43.7,42.9,30.10,SSE,153,0.0,0.0,97,0.00,CLR,,0.00,86.0,WeatherDisplay:10.37,2013-10-10 14:29:00,
2013-10-10 09:34:00,43.7,42.9,30.10,SSE,153,0.0,0.0,97,0.00,CLR,,0.00,105.0,WeatherDisplay:10.37,2013-10-10 14:34:00,
2013-10-10 09:39:00,43.7,42.9,30.10,SSE,153,0.0,0.0,97,0.00,CLR,,0.00,105.0,WeatherDisplay:10.37,2013-10-10 14:39:00,
2013-10-10 09:44:00,46.2,45.4,30.10,SSE,153,0.0,0.0,97,0.00,CLR,,0.00,70.0,WeatherDisplay:10.37,2013-10-10 14:44:00,
2013-10-10 09:49:00,43.7,42.9,30.10,SSE,153,0.0,0.0,97,0.00,CLR,,0.00,105.0,WeatherDisplay:10.37,2013-10-10 14:49:00,
2013-10-10 09:54:00,48.2,47.7,30.09,SSE,153,1.1,1.1,98,0.00,CLR,,0.00,67.0,WeatherDisplay:10.37,2013-10-10 14:54:00,
2013-10-10 09:59:00,47.4,46.9,30.09,SSE,153,0.0,0.0,98,0.00,CLR,,0.00,70.0,WeatherDisplay:10.37,2013-10-10 14:59:00,
2013-10-10 10:04:00,49.9,49.4,30.10,SSW,211,1.1,1.1,98,0.00,CLR,,0.00,67.0,WeatherDisplay:10.37,2013-10-10 15:04:00,
2013-10-10 10:09:00,50.9,50.4,30.09,SW,224,2.3,0.0,98,0.00,CLR,,0.00,65.0,WeatherDisplay:10.37,2013-10-10 15:09:00,
2013-10-10 10:14:00,47.4,46.9,30.09,SSE,153,0.0,0.0,98,0.00,CLR,,0.00,70.0,WeatherDisplay:10.37,2013-10-10 15:14:00,
2013-10-10 10:19:00,53.2,49.7,30.09,SSE,151,3.0,3.0,88,0.00,CLR,,0.00,65.0,WeatherDisplay:10.37,2013-10-10 15:19:00,
2013-10-10 10:24:00,54.1,49.7,30.09,West,263,0.0,0.0,85,0.00,CLR,,0.00,70.0,WeatherDisplay:10.37,2013-10-10 15:24:00,
2013-10-10 10:29:00,54.8,49.7,30.09,WNW,282,2.3,2.3,83,0.00,CLR,,0.00,72.0,WeatherDisplay:10.37,2013-10-10 15:29:00,
2013-10-10 10:34:00,47.4,46.9,30.09,SSE,153,0.0,0.0,98,0.00,CLR,,0.00,70.0,WeatherDisplay:10.37,2013-10-10 15:34:00,
2013-10-10 10:39:00,47.4,46.9,30.09,SSE,153,0.0,0.0,98,0.00,CLR,,0.00,70.0,WeatherDisplay:10.37,2013-10-10 15:39:00,
2013-10-10 10:44:00,57.2,49.0,30.08,SSW,209,2.3,2.3,74,0.00,CLR,,0.00,146.0,WeatherDisplay:10.37,2013-10-10 15:44:00,
2013-10-10 10:49:00,57.9,49.7,30.08,South,185,3.5,3.5,74,0.00,CLR,,0.00,155.0,WeatherDisplay:10.37,2013-10-10 15:49:00,
2013-10-10 10:54:00,57.2,49.0,30.08,SSW,209,2.3,2.3,74,0.00,CLR,,0.00,146.0,WeatherDisplay:10.37,2013-10-10 15:54:00,
2013-10-10 10:59:00,58.9,49.5,30.08,SSW,201,3.5,3.5,71,0.00,CLR,,0.00,169.0,WeatherDisplay:10.37,2013-10-10 15:59:00,
2013-10-10 11:04:00,57.2,49.0,30.08,SSW,209,2.3,2.3,74,0.00,CLR,,0.00,146.0,WeatherDisplay:10.37,2013-10-10 16:04:00,
2013-10-10 11:09:00,60.1,49.5,30.08,SSE,151,3.5,3.5,68,0.00,CLR,,0.00,167.0,WeatherDisplay:10.37,2013-10-10 16:09:00,
2013-10-10 11:14:00,60.0,49.4,30.08,ESE,122,0.0,1.4,68,0.00,CLR,,0.00,172.0,WeatherDisplay:10.37,2013-10-10 16:14:00,
2013-10-10 11:19:00,60.0,49.4,30.08,ESE,122,0.0,1.4,68,0.00,CLR,,0.00,172.0,WeatherDisplay:10.37,2013-10-10 16:19:00,
2013-10-10 11:24:00,60.0,49.4,30.08,ESE,122,0.0,1.4,68,0.00,CLR,,0.00,172.0,WeatherDisplay:10.37,2013-10-10 16:24:00,
2013-10-10 11:29:00,62.3,49.5,30.07,South,180,2.3,2.3,63,0.00,CLR,,0.00,267.0,WeatherDisplay:10.37,2013-10-10 16:29:00,
2013-10-10 11:34:00,60.0,49.4,30.08,ESE,122,0.0,1.4,68,0.00,CLR,,0.00,172.0,WeatherDisplay:10.37,2013-10-10 16:34:00,
2013-10-10 11:39:00,63.2,49.5,30.07,SSE,148,3.5,3.5,61,0.00,CLR,,0.00,239.0,WeatherDisplay:10.37,2013-10-10 16:39:00,
2013-10-10 11:44:00,63.5,48.9,30.07,SSE,168,3.5,3.5,59,0.00,CLR,,0.00,207.0,WeatherDisplay:10.37,2013-10-10 16:44:00,
2013-10-10 11:49:00,63.8,48.7,30.06,SSE,159,7.0,7.0,58,0.00,CLR,,0.00,392.0,WeatherDisplay:10.37,2013-10-10 16:49:00,
2013-10-10 11:54:00,64.3,48.7,30.06,South,187,3.5,3.5,57,0.00,CLR,,0.00,362.0,WeatherDisplay:10.37,2013-10-10 16:54:00,
2013-10-10 11:59:00,64.8,49.7,30.06,SSW,208,7.0,7.0,58,0.00,CLR,,0.00,315.0,WeatherDisplay:10.37,2013-10-10 16:59:00,
2013-10-10 12:04:00,60.0,49.4,30.08,ESE,122,0.0,1.4,68,0.00,CLR,,0.00,172.0,WeatherDisplay:10.37,2013-10-10 17:04:00,
2013-10-10 12:09:00,66.1,49.0,30.06,SSE,157,4.6,4.6,54,0.00,CLR,,0.00,508.0,WeatherDisplay:10.37,2013-10-10 17:09:00,
2013-10-10 12:14:00,66.7,49.5,30.06,SSE,153,3.5,3.5,54,0.00,CLR,,0.00,360.0,WeatherDisplay:10.37,2013-10-10 17:14:00,
2013-10-10 12:19:00,60.0,49.4,30.08,ESE,122,0.0,1.4,68,0.00,CLR,,0.00,172.0,WeatherDisplay:10.37,2013-10-10 17:19:00,
2013-10-10 12:24:00,67.5,48.7,30.05,SW,219,9.2,9.2,51,0.00,CLR,,0.00,318.0,WeatherDisplay:10.37,2013-10-10 17:24:00,
2013-10-10 12:29:00,67.5,49.3,30.05,East,97,3.5,3.5,52,0.00,CLR,,0.00,269.0,WeatherDisplay:10.37,2013-10-10 17:29:00,
2013-10-10 12:34:00,67.5,49.3,30.06,South,190,1.1,2.5,52,0.00,CLR,,0.00,306.0,WeatherDisplay:10.37,2013-10-10 17:34:00,
2013-10-10 12:39:00,67.3,49.1,30.05,SSE,149,5.0,5.0,52,0.00,CLR,,0.00,264.0,WeatherDisplay:10.37,2013-10-10 17:39:00,
2013-10-10 12:44:00,67.5,49.3,30.06,South,190,1.1,2.5,52,0.00,CLR,,0.00,306.0,WeatherDisplay:10.37,2013-10-10 17:44:00,
2013-10-10 12:49:00,67.5,49.8,30.05,SE,124,3.5,3.5,53,0.00,CLR,,0.00,297.0,WeatherDisplay:10.37,2013-10-10 17:49:00,
2013-10-10 12:54:00,67.7,48.4,30.05,SSE,159,4.0,4.0,50,0.00,CLR,,0.00,158.0,WeatherDisplay:10.37,2013-10-10 17:54:00,
2013-10-10 12:59:00,67.5,49.3,30.06,South,190,1.1,2.5,52,0.00,CLR,,0.00,306.0,WeatherDisplay:10.37,2013-10-10 17:59:00,
2013-10-10 13:04:00,67.9,48.0,30.04,WSW,237,4.0,4.0,49,0.00,CLR,,0.00,142.0,WeatherDisplay:10.37,2013-10-10 18:04:00,
2013-10-10 13:09:00,67.5,49.3,30.06,South,190,1.1,2.5,52,0.00,CLR,,0.00,306.0,WeatherDisplay:10.37,2013-10-10 18:09:00,
2013-10-10 13:14:00,67.9,48.6,30.05,SSE,153,3.5,3.5,50,0.00,CLR,,0.00,169.0,WeatherDisplay:10.37,2013-10-10 18:14:00,
2013-10-10 13:19:00,67.5,49.3,30.06,South,190,1.1,2.5,52,0.00,CLR,,0.00,306.0,WeatherDisplay:10.37,2013-10-10 18:19:00,
2013-10-10 13:24:00,67.5,49.3,30.06,South,190,1.1,2.5,52,0.00,CLR,,0.00,306.0,WeatherDisplay:10.37,2013-10-10 18:24:00,
2013-10-10 13:29:00,67.5,49.3,30.06,South,190,1.1,2.5,52,0.00,CLR,,0.00,306.0,WeatherDisplay:10.37,2013-10-10 18:29:00,
2013-10-10 13:34:00,67.5,49.3,30.06,South,190,1.1,2.5,52,0.00,CLR,,0.00,306.0,WeatherDisplay:10.37,2013-10-10 18:34:00,
2013-10-10 13:39:00,69.1,48.6,30.03,SW,234,3.5,3.5,48,0.00,CLR,,0.00,148.0,WeatherDisplay:10.37,2013-10-10 18:39:00,
2013-10-10 13:44:00,67.5,49.3,30.06,South,190,1.1,2.5,52,0.00,CLR,,0.00,306.0,WeatherDisplay:10.37,2013-10-10 18:44:00,
2013-10-10 13:49:00,69.4,47.7,30.03,South,186,8.0,8.0,46,0.00,CLR,,0.00,601.0,WeatherDisplay:10.37,2013-10-10 18:49:00,
2013-10-10 13:54:00,67.5,49.3,30.06,South,190,1.1,2.5,52,0.00,CLR,,0.00,306.0,WeatherDisplay:10.37,2013-10-10 18:54:00,
2013-10-10 14:00:00,70.1,48.4,30.03,North,355,4.6,4.6,46,0.00,CLR,,0.00,571.0,WeatherDisplay:10.37,2013-10-10 19:00:00,
2013-10-10 14:05:00,67.5,49.3,30.06,South,190,1.1,2.5,52,0.00,CLR,,0.00,306.0,WeatherDisplay:10.37,2013-10-10 19:05:00,
2013-10-10 14:10:00,67.5,49.3,30.06,South,190,1.1,2.5,52,0.00,CLR,,0.00,306.0,WeatherDisplay:10.37,2013-10-10 19:10:00,
2013-10-10 14:15:00,67.5,49.3,30.06,South,190,1.1,2.5,52,0.00,CLR,,0.00,306.0,WeatherDisplay:10.37,2013-10-10 19:15:00,
2013-10-10 14:20:00,70.7,47.1,30.03,South,173,9.0,9.0,43,0.00,CLR,,0.00,540.0,WeatherDisplay:10.37,2013-10-10 19:20:00,
2013-10-10 14:25:00,67.5,49.3,30.06,South,190,1.1,2.5,52,0.00,CLR,,0.00,306.0,WeatherDisplay:10.37,2013-10-10 19:25:00,
2013-10-10 14:30:00,70.5,47.5,30.02,ESE,103,4.6,4.6,44,0.00,CLR,,0.00,90.0,WeatherDisplay:10.37,2013-10-10 19:30:00,
2013-10-10 14:35:00,70.5,48.1,30.02,South,170,2.3,2.3,45,0.00,CLR,,0.00,91.0,WeatherDisplay:10.37,2013-10-10 19:35:00,
2013-10-10 14:40:00,67.5,49.3,30.06,South,190,1.1,2.5,52,0.00,CLR,,0.00,306.0,WeatherDisplay:10.37,2013-10-10 19:40:00,
2013-10-10 14:45:00,67.5,49.3,30.06,South,190,1.1,2.5,52,0.00,CLR,,0.00,306.0,WeatherDisplay:10.37,2013-10-10 19:45:00,
2013-10-10 14:50:00,67.5,49.3,30.06,South,190,1.1,2.5,52,0.00,CLR,,0.00,306.0,WeatherDisplay:10.37,2013-10-10 19:50:00,
2013-10-10 14:55:00,67.5,49.3,30.06,South,190,1.1,2.5,52,0.00,CLR,,0.00,306.0,WeatherDisplay:10.37,2013-10-10 19:55:00,
2013-10-10 15:00:00,71.3,48.3,30.01,South,178,1.1,1.4,44,0.00,CLR,,0.00,534.0,WeatherDisplay:10.37,2013-10-10 20:00:00,
2013-10-10 15:05:00,71.5,46.6,30.01,WSW,244,8.1,8.1,41,0.00,CLR,,0.00,469.0,WeatherDisplay:10.37,2013-10-10 20:05:00,
2013-10-10 15:10:00,71.7,47.4,30.01,ESE,120,5.8,5.8,42,0.00,CLR,,0.00,499.0,WeatherDisplay:10.37,2013-10-10 20:10:00,
2013-10-10 15:15:00,71.3,48.3,30.01,South,178,1.1,1.4,44,0.00,CLR,,0.00,534.0,WeatherDisplay:10.37,2013-10-10 20:15:00,
2013-10-10 15:20:00,71.3,48.3,30.01,South,178,1.1,1.4,44,0.00,CLR,,0.00,534.0,WeatherDisplay:10.37,2013-10-10 20:20:00,
2013-10-10 15:25:00,71.3,48.3,30.01,South,178,1.1,1.4,44,0.00,CLR,,0.00,534.0,WeatherDisplay:10.37,2013-10-10 20:25:00,
2013-10-10 15:30:00,71.3,48.3,30.01,South,178,1.1,1.4,44,0.00,CLR,,0.00,534.0,WeatherDisplay:10.37,2013-10-10 20:30:00,
2013-10-10 15:31:00,71.3,48.3,30.01,South,178,1.1,1.4,44,0.00,CLR,,0.00,534.0,WeatherDisplay:10.37,2013-10-10 20:31:00,
2013-10-10 15:36:00,71.4,47.1,30.01,West,266,9.2,9.2,42,0.00,CLR,,0.00,156.0,WeatherDisplay:10.37,2013-10-10 20:36:00,
2013-10-10 15:41:00,71.3,47.6,30.01,South,176,2.3,2.3,43,0.00,CLR,,0.00,338.0,WeatherDisplay:10.37,2013-10-10 20:41:00,
2013-10-10 15:46:00,71.3,47.6,30.01,South,176,2.3,2.3,43,0.00,CLR,,0.00,338.0,WeatherDisplay:10.37,2013-10-10 20:46:00,
2013-10-10 15:51:00,71.4,47.1,30.00,SSE,164,9.2,9.2,42,0.00,CLR,,0.00,403.0,WeatherDisplay:10.37,2013-10-10 20:51:00,
2013-10-10 15:56:00,71.3,47.6,30.01,South,176,2.3,2.3,43,0.00,CLR,,0.00,338.0,WeatherDisplay:10.37,2013-10-10 20:56:00,
2013-10-10 16:01:00,71.3,47.6,30.01,South,176,2.3,2.3,43,0.00,CLR,,0.00,338.0,WeatherDisplay:10.37,2013-10-10 21:01:00,
2013-10-10 16:06:00,71.3,48.3,30.00,SW,217,6.9,6.9,44,0.00,CLR,,0.00,69.0,WeatherDisplay:10.37,2013-10-10 21:06:00,
2013-10-10 16:11:00,71.0,47.4,30.00,WSW,244,8.1,8.1,43,0.00,CLR,,0.00,49.0,WeatherDisplay:10.37,2013-10-10 21:11:00,
2013-10-10 16:16:00,71.3,47.6,30.01,South,176,2.3,2.3,43,0.00,CLR,,0.00,338.0,WeatherDisplay:10.37,2013-10-10 21:16:00,
2013-10-10 16:21:00,70.2,47.9,30.00,West,277,10.4,10.4,45,0.00,CLR,,0.00,46.0,WeatherDisplay:10.37,2013-10-10 21:21:00,
2013-10-10 16:26:00,70.1,47.8,30.00,SE,138,8.0,8.0,45,0.00,CLR,,0.00,44.0,WeatherDisplay:10.37,2013-10-10 21:26:00,
2013-10-10 16:31:00,70.1,47.2,30.00,SSE,168,6.0,6.0,44,0.00,CLR,,0.00,51.0,WeatherDisplay:10.37,2013-10-10 21:31:00,
2013-10-10 16:36:00,70.1,47.2,30.00,South,169,8.1,8.1,44,0.00,CLR,,0.00,169.0,WeatherDisplay:10.37,2013-10-10 21:36:00,
2013-10-10 16:41:00,70.1,47.8,30.00,SE,142,2.3,2.3,45,0.00,CLR,,0.00,44.0,WeatherDisplay:10.37,2013-10-10 21:41:00,
2013-10-10 16:46:00,70.1,47.8,30.00,SE,142,2.3,2.3,45,0.00,CLR,,0.00,44.0,WeatherDisplay:10.37,2013-10-10 21:46:00,
2013-10-10 16:51:00,70.3,47.9,29.99,SSE,148,3.5,3.5,45,0.00,CLR,,0.00,98.0,WeatherDisplay:10.37,2013-10-10 21:51:00,
2013-10-10 16:56:00,70.1,47.8,30.00,SE,142,2.3,2.3,45,0.00,CLR,,0.00,44.0,WeatherDisplay:10.37,2013-10-10 21:56:00,
2013-10-10 17:01:00,69.8,48.1,30.00,East,99,4.6,4.6,46,0.00,CLR,,0.00,125.0,WeatherDisplay:10.37,2013-10-10 22:01:00,
2013-10-10 17:06:00,69.6,47.3,30.00,ESE,111,5.8,5.8,45,0.00,CLR,,0.00,39.0,WeatherDisplay:10.37,2013-10-10 22:06:00,
2013-10-10 17:11:00,69.2,47.5,30.00,SSE,148,3.5,3.5,46,0.00,CLR,,0.00,37.0,WeatherDisplay:10.37,2013-10-10 22:11:00,
2013-10-10 17:16:00,70.1,47.8,30.00,SE,142,2.3,2.3,45,0.00,CLR,,0.00,44.0,WeatherDisplay:10.37,2013-10-10 22:16:00,
2013-10-10 17:21:00,68.9,47.3,30.00,SSE,155,8.0,8.0,46,0.00,CLR,,0.00,26.0,WeatherDisplay:10.37,2013-10-10 22:21:00,
2013-10-10 17:26:00,70.1,47.8,30.00,SE,142,2.3,2.3,45,0.00,CLR,,0.00,44.0,WeatherDisplay:10.37,2013-10-10 22:26:00,
2013-10-10 17:31:00,70.1,47.8,30.00,SE,142,2.3,2.3,45,0.00,CLR,,0.00,44.0,WeatherDisplay:10.37,2013-10-10 22:31:00,
2013-10-10 17:36:00,70.1,47.8,30.00,SE,142,2.3,2.3,45,0.00,CLR,,0.00,44.0,WeatherDisplay:10.37,2013-10-10 22:36:00,
2013-10-10 17:41:00,67.9,47.5,29.99,SSE,155,5.0,5.0,48,0.00,CLR,,0.00,18.0,WeatherDisplay:10.37,2013-10-10 22:41:00,
2013-10-10 17:46:00,70.1,47.8,30.00,SE,142,2.3,2.3,45,0.00,CLR,,0.00,44.0,WeatherDisplay:10.37,2013-10-10 22:46:00,
2013-10-10 17:51:00,67.4,47.0,29.99,SSW,206,1.1,1.1,48,0.00,CLR,,0.00,14.0,WeatherDisplay:10.37,2013-10-10 22:51:00,
2013-10-10 17:56:00,67.4,47.0,29.99,SSW,206,0.0,0.5,48,0.00,CLR,,0.00,14.0,WeatherDisplay:10.37,2013-10-10 22:56:00,
2013-10-10 18:01:00,67.4,47.0,29.99,SSW,206,0.0,0.5,48,0.00,CLR,,0.00,14.0,WeatherDisplay:10.37,2013-10-10 23:01:00,
2013-10-10 18:06:00,66.7,47.5,29.99,SSE,156,0.0,0.1,50,0.00,CLR,,0.00,7.0,WeatherDisplay:10.37,2013-10-10 23:06:00,
2013-10-10 18:11:00,66.7,47.5,29.99,SSE,156,0.0,0.1,50,0.00,CLR,,0.00,7.0,WeatherDisplay:10.37,2013-10-10 23:11:00,
2013-10-10 18:16:00,66.7,47.5,29.99,SSE,156,0.0,0.1,50,0.00,CLR,,0.00,7.0,WeatherDisplay:10.37,2013-10-10 23:16:00,
2013-10-10 18:21:00,65.0,49.9,29.99,SSE,150,2.3,2.3,58,0.00,CLR,,0.00,0.0,WeatherDisplay:10.37,2013-10-10 23:21:00,
2013-10-10 18:26:00,66.7,47.5,29.99,SSE,156,0.0,0.1,50,0.00,CLR,,0.00,7.0,WeatherDisplay:10.37,2013-10-10 23:26:00,
2013-10-10 18:31:00,66.7,47.5,29.99,SSE,156,0.0,0.1,50,0.00,CLR,,0.00,7.0,WeatherDisplay:10.37,2013-10-10 23:31:00,
2013-10-10 18:36:00,63.6,47.6,29.99,South,182,4.0,0.0,56,0.00,CLR,,0.00,0.0,WeatherDisplay:10.37,2013-10-10 23:36:00,
2013-10-10 18:41:00,63.3,49.2,29.98,South,181,0.0,0.0,60,0.00,CLR,,0.00,0.0,WeatherDisplay:10.37,2013-10-10 23:41:00,
2013-10-10 18:46:00,66.7,47.5,29.99,SSE,156,0.0,0.1,50,0.00,CLR,,0.00,0.0,WeatherDisplay:10.37,2013-10-10 23:46:00,
2013-10-10 18:52:00,66.7,47.5,29.99,SSE,156,0.0,0.1,50,0.00,CLR,,0.00,0.0,WeatherDisplay:10.37,2013-10-10 23:52:00,
2013-10-10 18:57:00,66.7,47.5,29.99,SSE,156,0.0,0.1,50,0.00,CLR,,0.00,0.0,WeatherDisplay:10.37,2013-10-10 23:57:00,
2013-10-10 19:02:00,66.7,47.5,29.99,SSE,156,0.0,0.1,50,0.00,CLR,,0.00,0.0,WeatherDisplay:10.37,2013-10-11 00:02:00,
2013-10-10 19:07:00,66.7,47.5,29.99,SSE,156,0.0,0.1,50,0.00,CLR,,0.00,0.0,WeatherDisplay:10.37,2013-10-11 00:07:00,
2013-10-10 19:12:00,66.7,47.5,29.99,SSE,156,0.0,0.1,50,0.00,CLR,,0.00,0.0,WeatherDisplay:10.37,2013-10-11 00:12:00,
2013-10-10 19:17:00,60.3,48.5,29.99,South,173,2.3,2.3,65,0.00,CLR,,0.00,0.0,WeatherDisplay:10.37,2013-10-11 00:17:00,
2013-10-10 19:22:00,59.9,49.3,29.99,South,173,0.0,0.0,68,0.00,CLR,,0.00,0.0,WeatherDisplay:10.37,2013-10-11 00:22:00,
2013-10-10 19:27:00,60.2,48.4,29.99,South,173,0.0,0.3,65,0.00,CLR,,0.00,0.0,WeatherDisplay:10.37,2013-10-11 00:27:00,
2013-10-10 19:32:00,58.9,49.9,29.99,South,173,0.0,0.0,72,0.00,CLR,,0.00,0.0,WeatherDisplay:10.37,2013-10-11 00:32:00,
2013-10-10 19:37:00,60.2,48.4,29.99,South,173,0.0,0.3,65,0.00,CLR,,0.00,0.0,WeatherDisplay:10.37,2013-10-11 00:37:00,
2013-10-10 19:42:00,60.2,48.4,29.99,South,173,0.0,0.3,65,0.00,CLR,,0.00,0.0,WeatherDisplay:10.37,2013-10-11 00:42:00,
2013-10-10 19:47:00,57.3,49.4,29.99,South,173,0.0,0.0,75,0.00,CLR,,0.00,0.0,WeatherDisplay:10.37,2013-10-11 00:47:00,
2013-10-10 19:52:00,56.9,49.4,29.99,South,173,0.0,0.0,76,0.00,CLR,,0.00,0.0,WeatherDisplay:10.37,2013-10-11 00:52:00,
2013-10-10 19:57:00,60.2,48.4,29.99,South,173,0.0,0.3,65,0.00,CLR,,0.00,0.0,WeatherDisplay:10.37,2013-10-11 00:57:00,
2013-10-10 20:02:00,56.0,48.9,29.99,South,173,0.0,0.0,77,0.00,CLR,,0.00,0.0,WeatherDisplay:10.37,2013-10-11 01:02:00,
2013-10-10 20:07:00,55.7,48.9,29.99,South,173,0.0,0.0,78,0.00,CLR,,0.00,0.0,WeatherDisplay:10.37,2013-10-11 01:07:00,
2013-10-10 20:12:00,60.2,48.4,29.99,South,173,0.0,0.3,65,0.00,CLR,,0.00,0.0,WeatherDisplay:10.37,2013-10-11 01:12:00,
2013-10-10 20:17:00,60.2,48.4,29.99,South,173,0.0,0.3,65,0.00,CLR,,0.00,0.0,WeatherDisplay:10.37,2013-10-11 01:17:00,
2013-10-10 20:22:00,60.2,48.4,29.99,South,173,0.0,0.3,65,0.00,CLR,,0.00,0.0,WeatherDisplay:10.37,2013-10-11 01:22:00,
2013-10-10 20:27:00,60.2,48.4,29.99,South,173,0.0,0.3,65,0.00,CLR,,0.00,0.0,WeatherDisplay:10.37,2013-10-11 01:27:00,
2013-10-10 20:32:00,53.8,47.4,29.99,South,173,0.0,0.0,79,0.00,CLR,,0.00,0.0,WeatherDisplay:10.37,2013-10-11 01:32:00,
2013-10-10 20:37:00,53.4,47.4,29.99,South,173,0.0,0.0,80,0.00,CLR,,0.00,0.0,WeatherDisplay:10.37,2013-10-11 01:37:00,
2013-10-10 20:42:00,60.2,48.4,29.99,South,173,0.0,0.3,65,0.00,CLR,,0.00,0.0,WeatherDisplay:10.37,2013-10-11 01:42:00,
2013-10-10 20:47:00,53.0,47.7,29.99,South,173,0.0,0.0,82,0.00,CLR,,0.00,0.0,WeatherDisplay:10.37,2013-10-11 01:47:00,
2013-10-10 20:52:00,52.8,47.1,29.99,South,173,0.0,0.0,81,0.00,CLR,,0.00,0.0,WeatherDisplay:10.37,2013-10-11 01:52:00,
2013-10-10 20:57:00,60.2,48.4,29.99,South,173,0.0,0.3,65,0.00,CLR,,0.00,0.0,WeatherDisplay:10.37,2013-10-11 01:57:00,
2013-10-10 21:02:00,60.2,48.4,29.99,South,173,0.0,0.3,65,0.00,CLR,,0.00,0.0,WeatherDisplay:10.37,2013-10-11 02:02:00,
2013-10-10 21:07:00,52.6,46.9,30.00,South,173,0.0,0.0,81,0.00,CLR,,0.00,0.0,WeatherDisplay:10.37,2013-10-11 02:07:00,
2013-10-10 21:12:00,52.6,46.9,30.00,South,173,0.0,0.0,81,0.00,CLR,,0.00,0.0,WeatherDisplay:10.37,2013-10-11 02:12:00,
2013-10-10 21:17:00,52.6,46.9,30.00,South,173,0.0,0.0,81,0.00,CLR,,0.00,0.0,WeatherDisplay:10.37,2013-10-11 02:17:00,
2013-10-10 21:22:00,52.6,46.9,30.00,South,173,0.0,0.0,81,0.00,CLR,,0.00,0.0,WeatherDisplay:10.37,2013-10-11 02:22:00,
2013-10-10 21:27:00,52.6,46.9,30.00,South,173,0.0,0.0,81,0.00,CLR,,0.00,0.0,WeatherDisplay:10.37,2013-10-11 02:27:00,
2013-10-10 21:32:00,52.6,46.9,30.00,South,173,0.0,0.0,81,0.00,CLR,,0.00,0.0,WeatherDisplay:10.37,2013-10-11 02:32:00,
2013-10-10 21:37:00,52.6,46.9,30.00,South,173,0.0,0.0,81,0.00,CLR,,0.00,0.0,WeatherDisplay:10.37,2013-10-11 02:37:00,
2013-10-10 21:42:00,52.6,46.9,30.00,South,173,0.0,0.0,81,0.00,CLR,,0.00,0.0,WeatherDisplay:10.37,2013-10-11 02:42:00,
2013-10-10 21:47:00,53.0,47.3,30.00,SE,125,0.0,0.0,81,0.00,CLR,,0.00,0.0,WeatherDisplay:10.37,2013-10-11 02:47:00,
2013-10-10 21:52:00,53.0,47.3,30.01,SE,125,0.0,0.0,81,0.00,CLR,,0.00,0.0,WeatherDisplay:10.37,2013-10-11 02:52:00,
2013-10-10 21:57:00,53.0,47.0,30.00,SE,125,0.0,0.0,80,0.00,CLR,,0.00,0.0,WeatherDisplay:10.37,2013-10-11 02:57:00,
2013-10-10 22:02:00,52.9,46.9,30.01,SE,125,0.0,0.0,80,0.00,CLR,,0.00,0.0,WeatherDisplay:10.37,2013-10-11 03:02:00,
2013-10-10 22:07:00,52.8,47.1,30.00,SE,125,0.0,0.0,81,0.00,CLR,,0.00,0.0,WeatherDisplay:10.37,2013-10-11 03:07:00,
2013-10-10 22:12:00,52.7,47.4,30.00,SE,125,0.0,0.0,82,0.00,CLR,,0.00,0.0,WeatherDisplay:10.37,2013-10-11 03:12:00,
2013-10-10 22:17:00,52.6,47.3,30.00,SE,125,0.0,0.0,82,0.00,CLR,,0.00,0.0,WeatherDisplay:10.37,2013-10-11 03:17:00,
2013-10-10 22:22:00,52.4,47.1,30.00,SE,125,0.0,0.0,82,0.00,CLR,,0.00,0.0,WeatherDisplay:10.37,2013-10-11 03:22:00,
2013-10-10 22:27:00,53.0,47.0,30.00,SE,125,0.0,0.0,80,0.00,CLR,,0.00,0.0,WeatherDisplay:10.37,2013-10-11 03:27:00,
2013-10-10 22:32:00,53.0,47.0,30.00,SE,125,0.0,0.0,80,0.00,CLR,,0.00,0.0,WeatherDisplay:10.37,2013-10-11 03:32:00,
2013-10-10 22:37:00,53.0,47.0,30.00,SE,125,0.0,0.0,80,0.00,CLR,,0.00,0.0,WeatherDisplay:10.37,2013-10-11 03:37:00,
2013-10-10 22:42:00,51.9,46.9,30.00,SE,125,0.0,0.0,83,0.00,CLR,,0.00,0.0,WeatherDisplay:10.37,2013-10-11 03:42:00,
2013-10-10 22:47:00,53.0,47.0,30.00,SE,125,0.0,0.0,80,0.00,CLR,,0.00,0.0,WeatherDisplay:10.37,2013-10-11 03:47:00,
2013-10-10 22:52:00,53.0,47.0,30.00,SE,125,0.0,0.0,80,0.00,CLR,,0.00,0.0,WeatherDisplay:10.37,2013-10-11 03:52:00,
2013-10-10 22:57:00,53.0,47.0,30.00,SE,125,0.0,0.0,80,0.00,CLR,,0.00,0.0,WeatherDisplay:10.37,2013-10-11 03:57:00,
2013-10-10 23:01:00,53.0,47.0,30.00,SE,125,0.0,0.0,80,0.00,CLR,,0.00,0.0,WeatherDisplay:10.37,2013-10-11 04:01:00,
2013-10-10 23:06:00,51.3,46.6,30.01,SE,125,0.0,0.0,84,0.00,CLR,,0.00,0.0,WeatherDisplay:10.37,2013-10-11 04:06:00,
2013-10-10 23:11:00,53.0,47.0,30.00,SE,125,0.0,0.0,80,0.00,CLR,,0.00,0.0,WeatherDisplay:10.37,2013-10-11 04:11:00,
2013-10-10 23:16:00,50.8,46.1,30.00,SE,125,0.0,0.0,84,0.00,CLR,,0.00,0.0,WeatherDisplay:10.37,2013-10-11 04:16:00,
2013-10-10 23:21:00,50.7,46.0,30.00,SE,125,0.0,0.0,84,0.00,CLR,,0.00,0.0,WeatherDisplay:10.37,2013-10-11 04:21:00,
2013-10-10 23:26:00,50.7,46.0,30.00,SE,125,0.0,0.0,84,0.00,CLR,,0.00,0.0,WeatherDisplay:10.37,2013-10-11 04:26:00,
2013-10-10 23:31:00,50.3,46.0,30.00,SE,125,0.0,0.0,85,0.00,CLR,,0.00,0.0,WeatherDisplay:10.37,2013-10-11 04:31:00,
2013-10-10 23:36:00,50.1,45.8,30.00,SE,125,0.0,0.0,85,0.00,CLR,,0.00,0.0,WeatherDisplay:10.37,2013-10-11 04:36:00,
2013-10-10 23:41:00,49.7,45.7,30.00,SE,125,0.0,0.0,86,0.00,CLR,,0.00,0.0,WeatherDisplay:10.37,2013-10-11 04:41:00,
2013-10-10 23:46:00,49.6,45.6,30.00,SE,125,0.0,0.0,86,0.00,CLR,,0.00,0.0,WeatherDisplay:10.37,2013-10-11 04:46:00,
2013-10-10 23:51:00,49.5,45.8,30.00,SE,125,0.0,0.0,87,0.00,CLR,,0.00,0.0,WeatherDisplay:10.37,2013-10-11 04:51:00,
2013-10-10 23:56:00,49.4,45.7,30.00,SE,125,0.0,0.0,87,0.00,CLR,,0.00,0.0,WeatherDisplay:10.37,2013-10-11 04:56:00,